EW7845 Weather Reports


time (UTC)temp
C
wind
direction
speed
KPH
gust
KPH
rain 1hr
cm
rain 24hr
cm
rain mn
cm
humidity
%
barometer
mb
20260506163022 10 0.0 0.0 0.00 0.03 0.03 94 1022.1
20260506160021 8 0.0 0.0 0.00 0.03 0.03 95 1022.0
20260506153021 6 0.0 0.0 0.00 0.03 0.03 95 1021.0
20260506150021 3 0.0 0.0 0.00 0.03 0.03 95 1020.3
20260506140314 3 0.0 0.0 0.00 0.03 0.03 94 1019.5
20260506133041 3 0.0 0.0 0.00 0.03 0.03 93 1019.4
20260506130021 3 0.0 0.0 0.00 0.03 0.03 93 1019.4
20260506123021 4 0.0 0.0 0.00 0.05 0.03 93 1019.2
20260506120021 5 0.0 0.0 0.00 0.05 0.03 94 1019.4
20260506113021 5 0.0 0.0 0.00 0.05 0.03 94 1019.3
20260506110207 5 0.0 0.0 0.03 0.05 0.03 94 1019.1
20260506103021 5 0.0 0.0 0.03 0.05 0.03 94 1019.5
20260506100020 5 0.0 0.0 0.00 0.03 0.00 94 1019.5
20260506093020 5 0.0 0.0 0.00 0.03 0.00 94 1019.4
20260506090026 5 0.0 0.0 0.00 0.03 0.00 94 1018.6
20260506083021 5 0.0 0.0 0.00 0.03 0.00 94 1018.8
20260506073021 5 0.0 0.0 0.00 0.03 0.00 94 1019.2
20260506043022 6 0.0 0.0 0.00 0.03 0.03 94 1017.2
20260506040021 6 0.0 0.0 0.00 0.03 0.03 94 1016.4
20260506033020 6 0.0 0.0 0.00 0.03 0.03 94 1015.9
20260506030043 6 0.0 0.0 0.00 0.03 0.03 94 1015.6
20260506023022 6 0.0 0.0 0.00 0.03 0.03 94 1015.4
20260506020022 6 0.0 0.0 0.00 0.03 0.03 94 1015.2
20260506013022 6 0.0 0.0 0.00 0.03 0.03 93 1015.1
20260506010022 6 0.0 0.0 0.00 0.03 0.03 93 1015.3
20260506003041 6 0.0 1.6 0.00 0.03 0.03 93 1015.3
20260506000022 6 0.0 3.2 0.00 0.03 0.03 93 1015.2
20260505223022 6 0.0 0.0 0.00 0.05 0.03 93 1015.2
20260505220022 6 0.0 3.2 0.00 0.05 0.03 92 1015.4
20260505213021 6 0.0 4.8 0.00 0.05 0.03 92 1015.3
20260505210021 6 0.0 3.2 0.00 0.05 0.03 92 1015.4
20260505203022 6 0.0 1.6 0.00 0.05 0.03 92 1015.1
20260505200022 6 0.0 3.2 0.00 0.05 0.03 91 1015.3
20260505193022 7 0.0 4.8 0.00 0.05 0.03 91 1015.2
20260505190022 6 0.0 6.4 0.00 0.05 0.03 91 1014.9
20260505183021 6 0.0 1.6 0.00 0.05 0.03 93 1014.9
20260505180021 6 0.0 1.6 0.00 0.05 0.03 93 1014.5
20260505173021 5 0.0 3.2 0.00 0.05 0.03 92 1014.1
20260505170415 5 23 1.6 3.2 0.00 0.05 0.03 92 1013.7